Location: Arborea
(39.7744°N, 8.5819°E)
Time: 22:02:06
(UTC+00:00)

DMSP B5D2-2 - Pass Details

Date: 24 October 2021
Orbit: 789 x 806 km, 98.3° (Epoch: 06 December)

Event Time Altitude Azimuth Distance (km) Brightness Sun altitude
Rises 17:44:52 0° 20° (NNE) 3,311 7.0 -14.3°
Reaches altitude 10° 17:47:22 10° 28° (NNE) 2,374 6.2 -14.8°
Maximum altitude 17:52:17 40° 98° (E) 1,159 4.4 -15.8°
Drops below altitude 10° 17:57:08 10° 167° (SSE) 2,349 6.4 -16.7°
Sets 17:59:35 0° 175° (S) 3,272 7.2 -17.2°
